This demonstration page uses our WeatherBlox Daily Observations layout. Learn more.

Left ArrowRight Arrow

40.92945, -100.16068

Hourly Observations for February 3, 2020

Temp ( °F °C ) Dew Point ( °F °C ) Humidity (%) Winds ( mph kmh ) Pressure ( in mb ) Visibility ( mi km ) Precip ( " mm )
12:15 am 00:15 Partly Cloudy 33 0.5 31 -0.5 93 93 NE 20 31 29.75 1007 10 16 N/A
12:35 am 00:35 Partly Cloudy 32 0.1 31 -0.8 94 94 NE 23 37 29.75 1008 10 16 N/A
12:55 am 00:55 Mostly Cloudy 32 undefined 31 -0.8 94 94 NE 22 35 29.77 1008 10 16 N/A
1:15 am 01:15 Cloudy 32 0.1 30 -1 92 92 NE 23 37 29.75 1008 10 16 N/A
1:35 am 01:35 Cloudy 32 0.1 30 -1.1 92 92 NE 24 39 29.75 1008 10 16 N/A
1:55 am 01:55 Cloudy 32 undefined 30 -1.3 91 91 NE 24 39 29.74 1007 10 16 N/A
2:15 am 02:15 Cloudy 32 undefined 29 -1.5 90 90 NE 21 33 29.75 1007 10 16 N/A
2:35 am 02:35 Cloudy 32 undefined 29 -1.8 88 88 NE 22 35 29.76 1008 10 16 N/A
2:55 am 02:55 Cloudy 32 undefined 29 -1.7 88 88 NE 25 41 29.75 1007 10 16 N/A
3:15 am 03:15 Cloudy 32 undefined 28 -2.2 85 85 NNE 25 41 29.77 1008 10 16 N/A
3:35 am 03:35 Cloudy 32 undefined 28 -2 87 87 NE 23 37 29.76 1008 10 16 N/A
3:55 am 03:55 Cloudy 32 undefined 28 -2.1 86 86 NE 23 37 29.78 1008 10 16 N/A
4:15 am 04:15 Cloudy 32 undefined 28 -2.1 86 86 NE 26 43 29.78 1008 10 16 N/A
4:35 am 04:35 Cloudy 32 undefined 28 -2.1 86 86 NE 26 43 29.78 1008 10 16 N/A
4:55 am 04:55 Cloudy 32 undefined 28 -2.1 86 86 NE 23 37 29.79 1009 10 16 N/A
5:15 am 05:15 Cloudy 32 -0.2 28 -2.2 87 87 NE 29 46 29.79 1009 10 16 N/A
5:35 am 05:35 Cloudy 32 -0.2 28 -2.3 86 86 NE 28 44 29.79 1009 10 16 N/A
5:55 am 05:55 Cloudy 31 -0.3 28 -2.4 86 86 NE 26 43 29.80 1009 10 16 N/A
6:15 am 06:15 Cloudy 31 -0.3 27 -2.7 84 84 NNE 23 37 29.81 1009 10 16 N/A
6:35 am 06:35 Cloudy 31 -0.7 26 -3.3 83 83 NNE 24 39 29.83 1010 10 16 N/A
6:55 am 06:55 Cloudy 30 -1 22 -5.5 72 72 NNE 25 41 29.87 1011 10 16 N/A
7:15 am 07:15 Cloudy 30 -1.1 17 -8.2 59 59 NNE 22 35 29.86 1011 10 16 N/A
7:35 am 07:35 Cloudy 30 -1.2 17 -8.4 58 58 NNE 24 39 29.87 1011 10 16 N/A
7:55 am 07:55 Cloudy 30 -1.3 17 -8.5 58 58 NNE 20 31 29.88 1012 10 16 N/A
8:15 am 08:15 Cloudy 29 -1.5 17 -8.5 59 59 NNE 23 37 29.88 1012 10 16 N/A
8:35 am 08:35 Cloudy 29 -1.5 17 -8.3 60 60 NNE 23 37 29.88 1012 10 16 N/A
8:55 am 08:55 Cloudy 29 -1.5 17 -8.4 60 60 NNE 20 31 29.89 1012 10 16 N/A
9:15 am 09:15 Cloudy 29 -1.5 17 -8.5 59 59 NNE 20 31 29.90 1013 10 16 N/A
9:35 am 09:35 Cloudy 29 -1.5 17 -8.5 59 59 NNE 21 33 29.90 1013 10 16 N/A
9:55 am 09:55 Cloudy 30 -1.3 16 -8.7 58 58 NNE 18 30 29.90 1012 10 16 N/A
10:15 am 10:15 Cloudy 30 -1.2 16 -9 56 56 NNE 21 33 29.91 1013 10 16 N/A
10:35 am 10:35 Cloudy 30 -1 15 -9.3 54 54 NNE 17 28 29.93 1013 10 16 N/A
10:55 am 10:55 Cloudy 30 -1 15 -9.5 53 53 NNE 22 35 29.94 1014 10 16 N/A
11:15 am 11:15 Cloudy 31 -0.7 15 -9.5 52 52 NNE 18 30 29.93 1014 10 16 N/A
11:35 am 11:35 Cloudy 31 -0.5 16 -9 53 53 NNE 17 28 29.94 1014 10 16 N/A
11:55 am 11:55 Cloudy 31 -0.6 15 -9.4 52 52 NNE 22 35 29.93 1014 10 16 N/A
12:15 pm 12:15 Cloudy 31 -0.3 15 -9.7 50 50 NNE 22 35 29.92 1013 10 16 N/A
12:35 pm 12:35 Cloudy 32 -0.1 15 -9.4 50 50 NNE 22 35 29.92 1013 10 16 N/A
12:55 pm 12:55 Cloudy 32 -0.1 16 -9.1 51 51 NNE 20 31 29.92 1013 10 16 N/A
1:15 pm 13:15 Cloudy 32 -0.2 16 -8.9 52 52 NNE 20 31 29.93 1013 10 16 N/A
1:35 pm 13:35 Cloudy 32 -0.2 16 -8.9 52 52 NNE 20 31 29.93 1013 10 16 N/A
1:55 pm 13:55 Cloudy 32 -0.1 16 -8.7 53 53 NNE 17 28 29.92 1013 10 16 N/A
2:15 pm 14:15 Cloudy 32 -0.2 17 -8.5 54 54 NNE 17 28 29.93 1013 10 16 N/A
2:35 pm 14:35 Cloudy 31 -0.5 17 -8.4 56 56 N 17 28 29.94 1014 10 16 N/A
2:55 pm 14:55 Cloudy 31 -0.5 17 -8.1 57 57 NNE 17 28 29.94 1014 10 16 N/A
3:15 pm 15:15 Cloudy 31 -0.5 17 -8.6 55 55 NNE 21 33 29.93 1014 10 16 N/A
3:35 pm 15:35 Cloudy 31 -0.8 17 -8.4 57 57 NNE 20 31 29.94 1014 10 16 N/A
3:55 pm 15:55 Cloudy 30 -1 17 -8.4 58 58 NNE 21 33 29.96 1014 10 16 N/A
4:15 pm 16:15 Cloudy 30 -1 16 -8.9 55 55 N 18 30 29.96 1014 10 16 N/A
4:35 pm 16:35 Cloudy 30 -1.2 17 -8.3 59 59 NNE 17 28 29.97 1015 10 16 N/A
4:55 pm 16:55 Cloudy 29 -1.5 17 -8.4 60 60 NNE 18 30 29.96 1015 10 16 N/A
5:15 pm 17:15 Cloudy 29 -1.5 17 -8.3 60 60 NNE 18 30 29.98 1015 10 16 N/A
5:35 pm 17:35 Cloudy 29 -1.8 17 -8.4 61 61 N 21 33 29.99 1016 10 16 N/A
5:55 pm 17:55 Cloudy 28 -2 17 -8.4 62 62 N 20 31 30.01 1016 10 16 N/A
6:15 pm 18:15 Cloudy 28 -2.2 16 -8.7 61 61 NNE 18 30 30.01 1016 10 16 N/A
6:35 pm 18:35 Cloudy 28 -2.5 16 -9 61 61 NNE 21 33 30.02 1017 10 16 N/A
6:55 pm 18:55 Cloudy 28 -2.5 16 -9 61 61 NNE 21 33 30.02 1017 10 16 N/A
7:15 pm 19:15 Cloudy 28 -2.5 16 -9.1 61 61 NNE 20 31 30.03 1017 10 16 N/A
7:35 pm 19:35 Cloudy 27 -2.6 16 -9 62 62 NNE 20 31 30.04 1017 10 16 N/A
7:55 pm 19:55 Cloudy 27 -2.8 16 -8.9 63 63 NNE 16 26 30.06 1018 10 16 N/A
8:15 pm 20:15 Cloudy 27 -2.8 16 -8.9 63 63 NNE 17 28 30.08 1019 10 16 N/A
8:35 pm 20:35 Cloudy 27 -3 17 -8.6 66 66 NNE 18 30 30.10 1019 10 16 N/A
8:55 pm 20:55 Cloudy 27 -3 16 -9 64 64 NNE 16 26 30.10 1019 10 16 N/A
9:15 pm 21:15 Cloudy 26 -3.2 17 -8.5 67 67 NNE 17 28 30.11 1020 10 16 N/A
9:35 pm 21:35 Cloudy 26 -3.3 17 -8.2 69 69 NNE 17 28 30.11 1020 10 16 N/A
9:55 pm 21:55 Cloudy 26 -3.3 17 -8.2 69 69 NNE 16 26 30.12 1020 10 16 N/A
10:15 pm 22:15 Cloudy 26 -3.5 17 -8.2 70 70 NNE 14 22 30.13 1020 10 16 N/A
10:35 pm 22:35 Cloudy 26 -3.5 17 -8.5 69 69 NNE 12 19 30.14 1021 10 16 N/A
10:55 pm 22:55 Cloudy 26 -3.6 16 -8.9 67 67 NNE 18 30 30.14 1021 10 16 N/A
11:15 pm 23:15 Cloudy 25 -3.7 16 -8.9 68 68 NNE 18 30 30.13 1020 10 16 N/A
11:35 pm 23:35 Cloudy 25 -3.7 16 -8.8 68 68 NNE 15 24 30.15 1021 10 16 N/A
11:55 pm 23:55 Cloudy 25 -3.8 16 -8.9 68 68 NNE 17 28 30.17 1022 10 16 N/A

Powered by AerisWeather